Date String (YYYY-MM-DD hh:mm:ss) UTC,Instrument flags,Ambient pressure (hPa),Sample flow (lpm),Bypass flow (lpm),Sample temperature (°C),Ambient temperature (°C),ASC tube jacket temperature (°C),LED temperature (°C),Box temperature (°C),Sample RH (%),Span deviation,Mass concentration (μg/m³),Mass concentration (μg/m³),Mass concentration (μg/m³)
DateTimeUTC,F1_M11,P_M11,Q1_M11,Q2_M11,T1_M11,T2_M11,T3_M11,T4_M11,T5_M11,U1_M11,ZSPAN_M11,X2_M11,X0_M11,X1_M11
2022-01-29 14:00:00,,0829.7,5.00,0.00,22.7,23.0,00.0,31.5,24.7,03.5,0000.0,0000.39,0002.37,0000.24
2022-01-29 14:01:00,,0829.7,4.99,0.00,22.7,22.8,00.0,31.5,24.6,03.5,0000.0,0000.39,0002.33,0000.24
2022-01-29 14:02:00,,0829.7,5.01,0.00,22.7,22.7,00.0,31.5,24.6,03.5,0000.0,0000.42,0002.31,0000.25
2022-01-29 14:03:00,,0829.6,4.99,0.00,22.7,22.5,00.0,31.5,24.6,03.5,0000.0,0000.43,0002.31,0000.25
2022-01-29 14:04:00,,0829.7,5.01,0.00,22.7,22.4,00.0,31.5,24.5,03.5,0000.0,0000.42,0002.26,0000.26
2022-01-29 14:05:00,,0829.7,5.00,0.00,22.7,22.3,00.0,31.6,24.5,03.5,0000.0,0000.43,0001.83,0000.26
2022-01-29 14:06:00,,0829.7,5.02,0.00,22.7,22.2,00.0,31.6,24.4,03.5,0000.0,0000.45,0000.91,0000.26
2022-01-29 14:07:00,,0829.7,4.98,0.00,22.7,22.2,00.0,31.6,24.4,03.5,0000.0,0000.46,0000.92,0000.27
2022-01-29 14:08:00,,0829.7,5.01,0.00,22.6,22.1,00.0,31.6,24.4,03.4,0000.0,0000.46,0000.93,0000.27
2022-01-29 14:09:00,,0829.7,5.01,0.00,22.6,22.1,00.0,31.6,24.4,03.4,0000.0,0000.45,0000.87,0000.27
2022-01-29 14:10:00,,0829.7,5.00,0.00,22.6,22.0,00.0,31.6,24.4,03.4,0000.0,0000.45,0000.85,0000.27
2022-01-29 14:11:00,,0829.7,5.00,0.00,22.6,22.0,00.0,31.6,24.4,03.4,0000.0,0000.43,0000.71,0000.27
2022-01-29 14:12:00,,0829.7,5.00,0.00,22.6,22.0,00.0,31.6,24.4,03.4,0000.0,0000.43,0000.69,0000.27
2022-01-29 14:13:00,,0829.7,4.99,0.00,22.6,21.9,00.0,31.6,24.3,03.4,0000.0,0000.39,0000.60,0000.27
2022-01-29 14:14:00,,0829.7,5.01,0.00,22.6,21.9,00.0,31.6,24.3,03.4,0000.0,0000.38,0000.79,0000.26
2022-01-29 14:15:00,,0829.7,5.01,0.00,22.6,21.9,00.0,31.6,24.3,03.4,0000.0,0000.38,0000.81,0000.26
2022-01-29 14:16:00,,0829.7,4.99,0.00,22.6,21.9,00.0,31.5,24.3,03.5,0000.0,0000.38,0000.89,0000.26
2022-01-29 14:17:00,,0829.8,5.00,0.00,22.5,21.9,00.0,31.5,24.3,03.5,0000.0,0000.41,0000.98,0000.26
2022-01-29 14:18:00,,0829.8,5.00,0.00,22.5,21.9,00.0,31.5,24.3,03.5,0000.0,0000.40,0000.96,0000.26
2022-01-29 14:19:00,,0829.8,5.01,0.00,22.5,21.8,00.0,31.5,24.3,03.5,0000.0,0000.44,0001.02,0000.26
2022-01-29 14:20:00,,0829.8,5.00,0.00,22.5,21.8,00.0,31.5,24.3,03.4,0000.0,0000.44,0001.22,0000.26
2022-01-29 14:21:00,,0829.7,4.98,0.00,22.5,21.8,00.0,31.5,24.2,03.4,0000.0,0000.46,0001.31,0000.26
2022-01-29 14:22:00,,0829.7,5.01,0.00,22.5,21.8,00.0,31.5,24.2,03.4,0000.0,0000.50,0001.48,0000.26
2022-01-29 14:23:00,,0829.6,5.00,0.00,22.5,21.8,00.0,31.5,24.2,03.4,0000.0,0000.53,0001.91,0000.26
2022-01-29 14:24:00,,0829.7,5.01,0.00,22.5,21.8,00.0,31.5,24.2,03.4,0000.0,0000.54,0001.93,0000.28
2022-01-29 14:25:00,,0829.7,4.99,0.00,22.5,21.8,00.0,31.5,24.2,03.4,0000.0,0000.54,0001.69,0000.28
2022-01-29 14:26:00,,0829.8,5.00,0.00,22.4,21.8,00.0,31.5,24.2,03.4,0000.0,0000.53,0001.65,0000.29
2022-01-29 14:27:00,,0829.8,5.01,0.00,22.4,21.7,00.0,31.5,24.2,03.5,0000.0,0000.51,0001.54,0000.29
2022-01-29 14:28:00,,0829.8,5.00,0.00,22.4,21.7,00.0,31.4,24.2,03.5,0000.0,0000.51,0001.53,0000.29
2022-01-29 14:29:00,,0829.8,5.00,0.00,22.4,21.7,00.0,31.4,24.2,03.5,0000.0,0000.50,0001.51,0000.29
2022-01-29 14:30:00,,0829.8,5.00,0.00,22.4,21.7,00.0,31.4,24.2,03.6,0000.0,0000.45,0001.38,0000.29
2022-01-29 14:31:00,,0829.8,4.99,0.00,22.4,21.7,00.0,31.4,24.1,03.5,0000.0,0000.45,0001.31,0000.29
2022-01-29 14:32:00,,0829.7,5.00,0.00,22.4,21.7,00.0,31.4,24.1,03.5,0000.0,0000.43,0001.19,0000.30
2022-01-29 14:33:00,,0829.8,5.00,0.00,22.4,21.7,00.0,31.4,24.1,03.5,0000.0,0000.42,0001.15,0000.30
2022-01-29 14:34:00,,0829.8,5.00,0.00,22.4,22.1,00.0,31.4,24.2,03.5,0000.0,0000.41,0000.77,0000.29
2022-01-29 14:35:00,,0829.8,5.01,0.00,22.6,22.9,00.0,31.5,24.5,03.4,0000.0,0000.39,0000.75,0000.27
2022-01-29 14:36:00,,0829.8,4.98,0.00,22.7,23.5,00.0,31.5,24.7,03.4,0000.0,0000.39,0000.75,0000.27
2022-01-29 14:37:00,,0829.8,5.01,0.00,22.8,23.4,00.0,31.5,24.8,03.4,0000.0,0000.39,0000.79,0000.26
2022-01-29 14:38:00,,0829.8,5.00,0.00,22.8,23.2,00.0,31.6,24.7,03.4,0000.0,0000.39,0000.83,0000.26
2022-01-29 14:39:00,,0829.8,4.99,0.00,22.8,23.0,00.0,31.6,24.7,03.4,0000.0,0000.35,0000.74,0000.26
2022-01-29 14:40:00,,0829.8,5.00,0.00,22.8,22.8,00.0,31.6,24.7,03.3,0000.0,0000.35,0000.76,0000.25
2022-01-29 14:41:00,,0829.8,5.02,0.00,22.8,22.7,00.0,31.6,24.6,03.3,0000.0,0000.35,0000.76,0000.25
2022-01-29 14:42:00,,0829.8,5.00,0.00,22.8,22.5,00.0,31.6,24.6,03.3,0000.0,0000.34,0000.66,0000.25
2022-01-29 14:43:00,,0829.8,4.99,0.00,22.8,22.4,00.0,31.6,24.6,03.4,0000.0,0000.34,0000.67,0000.25
2022-01-29 14:44:00,,0829.8,5.00,0.00,22.8,22.4,00.0,31.6,24.5,03.3,0000.0,0000.31,0000.58,0000.24
2022-01-29 14:45:00,,0829.8,5.00,0.00,22.8,22.3,00.0,31.6,24.5,03.3,0000.0,0000.30,0000.53,0000.24
2022-01-29 14:46:00,,0829.8,5.01,0.00,22.8,22.3,00.0,31.7,24.5,03.3,0000.0,0000.31,0000.54,0000.25
2022-01-29 14:47:00,,0829.8,5.00,0.00,22.8,22.2,00.0,31.7,24.6,03.3,0000.0,0000.31,0000.55,0000.25
2022-01-29 14:48:00,,0829.8,4.99,0.00,22.8,22.2,00.0,31.7,24.5,03.3,0000.0,0000.31,0000.56,0000.25
2022-01-29 14:49:00,,0829.8,5.00,0.00,22.8,22.1,00.0,31.7,24.5,03.3,0000.0,0000.32,0000.62,0000.25
2022-01-29 14:50:00,,0829.8,5.01,0.00,22.8,22.1,00.0,31.7,24.5,03.3,0000.0,0000.34,0000.69,0000.26
2022-01-29 14:51:00,,0829.8,5.00,0.00,22.7,22.1,00.0,31.7,24.5,03.3,0000.0,0000.34,0000.67,0000.26
2022-01-29 14:52:00,,0829.8,5.01,0.00,22.8,22.1,00.0,31.7,24.5,03.3,0000.0,0000.33,0000.66,0000.26
2022-01-29 14:53:00,,0829.8,5.00,0.00,22.7,22.1,00.0,31.7,24.5,03.3,0000.0,0000.33,0000.64,0000.26
2022-01-29 14:54:00,,0829.8,4.98,0.00,22.7,22.1,00.0,31.7,24.5,03.3,0000.0,0000.33,0000.63,0000.26
2022-01-29 14:55:00,,0829.8,5.00,0.00,22.7,22.1,00.0,31.7,24.5,03.2,0000.0,0000.33,0000.63,0000.27
2022-01-29 14:56:00,,0829.8,5.01,0.00,22.7,22.1,00.0,31.7,24.5,03.2,0000.0,0000.32,0000.60,0000.27
2022-01-29 14:57:00,,0829.8,5.01,0.00,22.7,22.0,00.0,31.7,24.5,03.2,0000.0,0000.33,0000.63,0000.27
2022-01-29 14:58:00,,0829.8,5.00,0.00,22.7,22.1,00.0,31.7,24.5,03.2,0000.0,0000.33,0000.65,0000.27
2022-01-29 14:59:00,,0829.8,5.00,0.00,22.7,22.1,00.0,31.7,24.5,03.2,0000.0,0000.32,0000.62,0000.26
